Zurück zum Katalog

BEIDOU 8

AktivNavigationGEO
NORAD 37384·PAYLOAD·🇨🇳 China

Gestartet Apr 9, 2011 von Xichang Satellite Launch Center

Loading…

TLE

AktuellSource: Space-Track

Epoche: Sep 11, 2026, 17:17 UTC

1 37384U 11013A   26254.72041400 -.00000177  00000-0  00000-0 0  9994
2 37384  62.5388  39.3441 0034682 183.6392 132.9930  1.00292639 56525

Verfolge BEIDOU 8 in Echtzeit mit AllMySat

Download on the App Store